• In Schweiz
  • Länderverzeichnis
  • Für 7 Tage
  • Wassertemperatur
  • Satellitenkarten
  • Wetterkarte
  • Widgets
  • user-avatar
    Anmelden

    Stündliche Wetter Liberpol

    Heute, 20 September, Donnerstag

    Zeit Temperatur Niederschläge Wind Luftdruck Luftfeuchtigkeit
    00:00 +17°C° 0 mm 2 m/S 749 mmHg 73%
    01:00 +17°C° 0 mm 2 m/S 749 mmHg 74%
    02:00 +17°C° 0 mm 2 m/S 749 mmHg 75%
    03:00 +16°C° 0 mm 2 m/S 749 mmHg 76%
    04:00 +16°C° 0 mm 2 m/S 749 mmHg 77%
    05:00 +16°C° 0 mm 2 m/S 749 mmHg 78%
    06:00 +17°C° 0 mm 2 m/S 749 mmHg 76%
    07:00 +18°C° 0 mm 2 m/S 749 mmHg 74%
    08:00 +19°C° 0 mm 2 m/S 749 mmHg 71%
    09:00 +20°C° 0 mm 2 m/S 749 mmHg 66%
    10:00 +23°C° 0 mm 2 m/S 750 mmHg 61%
    11:00 +25°C° 0 mm 2 m/S 750 mmHg 56%
    12:00 +26°C° 0 mm 2 m/S 749 mmHg 54%
    13:00 +27°C° 0 mm 2 m/S 749 mmHg 51%
    14:00 +28°C° 0 mm 2 m/S 749 mmHg 49%
    15:00 +27°C° 0 mm 2 m/S 749 mmHg 52%
    16:00 +27°C° 0 mm 2 m/S 749 mmHg 55%
    17:00 +26°C° 0 mm 1 m/S 748 mmHg 58%
    18:00 +25°C° 0 mm 2 m/S 749 mmHg 61%
    19:00 +23°C° 0 mm 2 m/S 749 mmHg 65%
    20:00 +20°C° 0 mm 2 m/S 749 mmHg 69%
    21:00 +19°C° 0 mm 2 m/S 749 mmHg 70%
    22:00 +19°C° 0 mm 2 m/S 749 mmHg 71%
    23:00 +18°C° 0 mm 2 m/S 749 mmHg 72%

    Morgen, 21 September, Freitag

    Zeit Temperatur Niederschläge Wind Luftdruck Luftfeuchtigkeit
    00:00 +18°C° 0 mm 2 m/S 749 mmHg 73%
    01:00 +18°C° 0 mm 2 m/S 748 mmHg 74%
    02:00 +17°C° 0 mm 2 m/S 748 mmHg 75%
    03:00 +17°C° 0 mm 2 m/S 748 mmHg 76%
    04:00 +16°C° 0 mm 2 m/S 748 mmHg 77%
    05:00 +16°C° 0 mm 2 m/S 748 mmHg 78%
    06:00 +17°C° 0 mm 2 m/S 748 mmHg 76%
    07:00 +17°C° 0 mm 2 m/S 748 mmHg 75%
    08:00 +18°C° 0 mm 3 m/S 748 mmHg 73%
    09:00 +20°C° 0 mm 3 m/S 748 mmHg 68%
    10:00 +22°C° 0 mm 3 m/S 748 mmHg 62%
    11:00 +24°C° 0 mm 3 m/S 748 mmHg 57%
    12:00 +25°C° 0 mm 4 m/S 747 mmHg 54%
    13:00 +26°C° 0 mm 4 m/S 747 mmHg 51%
    14:00 +26°C° 0 mm 5 m/S 746 mmHg 48%
    15:00 +26°C° 0 mm 4 m/S 746 mmHg 51%
    16:00 +25°C° 0 mm 4 m/S 745 mmHg 55%
    17:00 +25°C° 0 mm 3 m/S 745 mmHg 58%
    18:00 +22°C° 0 mm 3 m/S 745 mmHg 61%
    19:00 +21°C° 0 mm 4 m/S 744 mmHg 64%
    20:00 +20°C° 0 mm 4 m/S 744 mmHg 67%
    21:00 +19°C° 0 mm 4 m/S 744 mmHg 67%
    22:00 +19°C° 0 mm 5 m/S 743 mmHg 68%
    23:00 +19°C° 0 mm 5 m/S 743 mmHg 69%

    übermorgen, 22 September, Samstag

    Zeit Temperatur Niederschläge Wind Luftdruck Luftfeuchtigkeit
    00:00 +19°C° 0 mm 5 m/S 742 mmHg 69%
    01:00 +19°C° 0 mm 5 m/S 742 mmHg 69%
    02:00 +19°C° 0 mm 5 m/S 742 mmHg 70%
    03:00 +17°C° 0.1 mm 5 m/S 742 mmHg 71%
    04:00 +17°C° 0.1 mm 6 m/S 742 mmHg 72%
    05:00 +16°C° 0.1 mm 6 m/S 743 mmHg 73%
    06:00 +15°C° 0.4 mm 6 m/S 743 mmHg 76%
    07:00 +14°C° 0.4 mm 6 m/S 744 mmHg 79%
    08:00 +12°C° 0.4 mm 5 m/S 745 mmHg 82%
    09:00 +13°C° 0.1 mm 5 m/S 745 mmHg 77%
    10:00 +13°C° 0.1 mm 5 m/S 746 mmHg 72%
    11:00 +14°C° 0.1 mm 5 m/S 747 mmHg 67%
    12:00 +14°C° 0 mm 5 m/S 747 mmHg 64%
    13:00 +14°C° 0 mm 5 m/S 747 mmHg 62%
    14:00 +13°C° 0 mm 4 m/S 747 mmHg 59%
    15:00 +13°C° 0 mm 4 m/S 747 mmHg 60%
    16:00 +13°C° 0 mm 4 m/S 747 mmHg 60%
    17:00 +13°C° 0 mm 4 m/S 747 mmHg 60%
    18:00 +12°C° 0 mm 3 m/S 747 mmHg 62%
    19:00 +11°C° 0 mm 3 m/S 747 mmHg 64%
    20:00 +10°C° 0 mm 3 m/S 747 mmHg 66%
    21:00 +10°C° 0 mm 3 m/S 747 mmHg 67%
    22:00 +10°C° 0 mm 3 m/S 746 mmHg 67%
    23:00 +10°C° 0 mm 3 m/S 746 mmHg 67%

    23 September, Sonntag

    Zeit Temperatur Niederschläge Wind Luftdruck Luftfeuchtigkeit
    00:00 +10°C° 0 mm 3 m/S 746 mmHg 67%
    01:00 +10°C° 0 mm 3 m/S 746 mmHg 67%
    02:00 +9°C° 0 mm 3 m/S 746 mmHg 67%
    03:00 +9°C° 0 mm 3 m/S 746 mmHg 69%
    04:00 +8°C° 0 mm 4 m/S 746 mmHg 71%
    05:00 +8°C° 0 mm 4 m/S 746 mmHg 73%
    06:00 +8°C° 0 mm 4 m/S 746 mmHg 73%
    07:00 +9°C° 0 mm 5 m/S 747 mmHg 73%
    08:00 +9°C° 0 mm 5 m/S 747 mmHg 73%
    09:00 +12°C° 0 mm 5 m/S 747 mmHg 66%
    10:00 +13°C° 0 mm 6 m/S 746 mmHg 60%
    11:00 +14°C° 0 mm 6 m/S 746 mmHg 53%
    12:00 +15°C° 0 mm 6 m/S 746 mmHg 51%
    13:00 +15°C° 0 mm 6 m/S 746 mmHg 49%
    14:00 +16°C° 0 mm 6 m/S 745 mmHg 47%
    15:00 +15°C° 0 mm 5 m/S 745 mmHg 51%
    16:00 +15°C° 0 mm 4 m/S 744 mmHg 56%
    17:00 +14°C° 0 mm 3 m/S 744 mmHg 61%
    18:00 +13°C° 0.3 mm 3 m/S 744 mmHg 68%
    19:00 +12°C° 0.3 mm 3 m/S 743 mmHg 75%
    20:00 +11°C° 0.3 mm 3 m/S 743 mmHg 82%
    21:00 +11°C° 0.4 mm 4 m/S 741 mmHg 83%
    22:00 +10°C° 0.4 mm 5 m/S 740 mmHg 84%
    23:00 +10°C° 0.4 mm 5 m/S 739 mmHg 86%

    24 September, Montag

    Zeit Temperatur Niederschläge Wind Luftdruck Luftfeuchtigkeit
    00:00 +11°C° 2.3 mm 6 m/S 737 mmHg 88%
    01:00 +11°C° 2.3 mm 6 m/S 736 mmHg 90%
    02:00 +11°C° 2.3 mm 7 m/S 734 mmHg 92%
    03:00 +12°C° 1.4 mm 7 m/S 733 mmHg 90%
    04:00 +14°C° 1.4 mm 7 m/S 732 mmHg 89%
    05:00 +14°C° 1.4 mm 7 m/S 730 mmHg 87%
    06:00 +15°C° 1.8 mm 7 m/S 730 mmHg 89%
    07:00 +15°C° 1.8 mm 7 m/S 729 mmHg 90%
    08:00 +15°C° 1.8 mm 7 m/S 729 mmHg 91%
    09:00 +13°C° 0.3 mm 8 m/S 729 mmHg 88%
    10:00 +12°C° 0.3 mm 9 m/S 730 mmHg 85%
    11:00 +11°C° 0.3 mm 10 m/S 731 mmHg 82%
    12:00 +9°C° 0 mm 10 m/S 732 mmHg 80%
    13:00 +10°C° 0 mm 9 m/S 734 mmHg 78%
    14:00 +8°C° 0 mm 9 m/S 735 mmHg 76%
    15:00 +9°C° 0.2 mm 8 m/S 737 mmHg 74%
    16:00 +10°C° 0.2 mm 8 m/S 738 mmHg 73%
    17:00 +10°C° 0.2 mm 7 m/S 739 mmHg 71%
    18:00 +9°C° 0.3 mm 7 m/S 740 mmHg 75%
    19:00 +8°C° 0.3 mm 6 m/S 741 mmHg 79%
    20:00 +8°C° 0.3 mm 6 m/S 742 mmHg 83%
    21:00 +7°C° 0.3 mm 6 m/S 743 mmHg 84%
    22:00 +6°C° 0.3 mm 7 m/S 744 mmHg 84%
    23:00 +5°C° 0.3 mm 7 m/S 745 mmHg 85%

    25 September, Dienstag

    Zeit Temperatur Niederschläge Wind Luftdruck Luftfeuchtigkeit
    00:00 +5°C° 0.1 mm 7 m/S 746 mmHg 84%
    01:00 +5°C° 0.1 mm 6 m/S 747 mmHg 83%
    02:00 +4°C° 0.1 mm 6 m/S 747 mmHg 82%
    03:00 +4°C° 0 mm 6 m/S 748 mmHg 82%
    04:00 +3°C° 0 mm 6 m/S 748 mmHg 82%
    05:00 +3°C° 0 mm 5 m/S 749 mmHg 82%
    06:00 +3°C° 0 mm 6 m/S 749 mmHg 79%
    07:00 +4°C° 0 mm 6 m/S 750 mmHg 77%
    08:00 +4°C° 0 mm 6 m/S 750 mmHg 75%
    09:00 +7°C° 0 mm 6 m/S 751 mmHg 68%
    10:00 +8°C° 0 mm 6 m/S 751 mmHg 61%
    11:00 +10°C° 0 mm 7 m/S 751 mmHg 54%
    12:00 +10°C° 0.1 mm 7 m/S 751 mmHg 53%
    13:00 +10°C° 0.1 mm 7 m/S 751 mmHg 53%
    14:00 +11°C° 0.1 mm 6 m/S 750 mmHg 52%
    15:00 +10°C° 0.1 mm 6 m/S 750 mmHg 57%
    16:00 +10°C° 0.1 mm 5 m/S 749 mmHg 61%
    17:00 +9°C° 0.1 mm 5 m/S 749 mmHg 66%
    18:00 +9°C° 0.1 mm 5 m/S 749 mmHg 72%
    19:00 +8°C° 0.1 mm 4 m/S 748 mmHg 77%
    20:00 +7°C° 0.1 mm 4 m/S 748 mmHg 83%
    21:00 +7°C° 0.1 mm 4 m/S 748 mmHg 84%
    22:00 +7°C° 0.1 mm 4 m/S 748 mmHg 86%
    23:00 +6°C° 0.1 mm 4 m/S 748 mmHg 87%
    Mehr zeigen